Previsão horária em Plonkowko

Hoje, 7 Março, Domingo

Tempo Temperatura Precipitação Vento Pressão Humidade
00:00 -2°C° 0 mm 6 m/s 759 mmHg 81%
01:00 -1°C° 0 mm 6 m/s 759 mmHg 80%
02:00 -2°C° 0 mm 7 m/s 758 mmHg 79%
03:00 -2°C° 0 mm 7 m/s 757 mmHg 78%
04:00 -3°C° 0 mm 7 m/s 757 mmHg 77%
05:00 -4°C° 0 mm 8 m/s 756 mmHg 78%
06:00 -4°C° 0 mm 8 m/s 756 mmHg 78%
07:00 -4°C° 0 mm 8 m/s 756 mmHg 78%
08:00 -2°C° 0 mm 8 m/s 755 mmHg 77%
09:00 -2°C° 0 mm 8 m/s 755 mmHg 75%
10:00 -1°C° 0 mm 8 m/s 755 mmHg 74%
11:00 -1°C° 0 mm 8 m/s 755 mmHg 72%
12:00 -1°C° 0 mm 8 m/s 754 mmHg 71%
13:00 0°C° 0 mm 8 m/s 754 mmHg 69%
14:00 -1°C° 0 mm 8 m/s 754 mmHg 73%
15:00 -1°C° 0 mm 7 m/s 754 mmHg 77%
16:00 -1°C° 0 mm 7 m/s 753 mmHg 82%
17:00 -1°C° 0.1 mm 7 m/s 753 mmHg 86%
18:00 -2°C° 0.1 mm 7 m/s 753 mmHg 90%
19:00 -2°C° 0.1 mm 6 m/s 753 mmHg 95%
20:00 -2°C° 0.5 mm 5 m/s 753 mmHg 92%
21:00 -3°C° 0.5 mm 4 m/s 753 mmHg 90%
22:00 -2°C° 0.5 mm 2 m/s 753 mmHg 87%
23:00 -3°C° 0 mm 2 m/s 754 mmHg 87%

Amanhã, 8 Março, Segunda-feira

Tempo Temperatura Precipitação Vento Pressão Humidade
00:00 -3°C° 0 mm 2 m/s 754 mmHg 87%
01:00 -4°C° 0 mm 2 m/s 754 mmHg 87%
02:00 -4°C° 0 mm 2 m/s 754 mmHg 85%
03:00 -4°C° 0 mm 2 m/s 754 mmHg 84%
04:00 -4°C° 0 mm 2 m/s 754 mmHg 82%
05:00 -5°C° 0 mm 3 m/s 755 mmHg 78%
06:00 -5°C° 0 mm 3 m/s 755 mmHg 75%
07:00 -5°C° 0 mm 3 m/s 756 mmHg 72%
08:00 -2°C° 0 mm 3 m/s 756 mmHg 68%
09:00 -1°C° 0 mm 3 m/s 757 mmHg 64%
10:00 0°C° 0 mm 3 m/s 757 mmHg 59%
11:00 +1°C° 0 mm 3 m/s 757 mmHg 58%
12:00 +1°C° 0 mm 3 m/s 757 mmHg 56%
13:00 +1°C° 0 mm 4 m/s 758 mmHg 54%
14:00 0°C° 0.1 mm 4 m/s 758 mmHg 56%
15:00 0°C° 0.1 mm 4 m/s 758 mmHg 57%
16:00 0°C° 0.1 mm 4 m/s 758 mmHg 58%
17:00 0°C° 0 mm 3 m/s 758 mmHg 65%
18:00 -1°C° 0 mm 3 m/s 758 mmHg 72%
19:00 -3°C° 0 mm 2 m/s 759 mmHg 78%
20:00 -3°C° 0 mm 2 m/s 759 mmHg 79%
21:00 -3°C° 0 mm 2 m/s 759 mmHg 80%
22:00 -4°C° 0 mm 2 m/s 759 mmHg 81%
23:00 -4°C° 0 mm 2 m/s 759 mmHg 80%

Depois de amanhã, 9 Março, Terça-feira

Tempo Temperatura Precipitação Vento Pressão Humidade
00:00 -2°C° 0 mm 1 m/s 759 mmHg 79%
01:00 -2°C° 0 mm 1 m/s 759 mmHg 78%
02:00 -2°C° 0 mm 1 m/s 759 mmHg 78%
03:00 -2°C° 0 mm 1 m/s 759 mmHg 78%
04:00 -2°C° 0 mm 1 m/s 759 mmHg 78%
05:00 -1°C° 0 mm 1 m/s 759 mmHg 78%
06:00 -1°C° 0 mm 1 m/s 759 mmHg 77%
07:00 -2°C° 0 mm 0 m/s 760 mmHg 77%
08:00 0°C° 0 mm 1 m/s 760 mmHg 71%
09:00 0°C° 0 mm 1 m/s 760 mmHg 66%
10:00 +1°C° 0 mm 1 m/s 760 mmHg 60%
11:00 +2°C° 0 mm 1 m/s 760 mmHg 56%
12:00 +2°C° 0 mm 1 m/s 760 mmHg 52%
13:00 +3°C° 0 mm 1 m/s 760 mmHg 49%
14:00 +3°C° 0 mm 1 m/s 760 mmHg 49%
15:00 +2°C° 0 mm 1 m/s 759 mmHg 50%
16:00 +2°C° 0 mm 1 m/s 759 mmHg 51%
17:00 +1°C° 0 mm 1 m/s 759 mmHg 55%
18:00 0°C° 0 mm 1 m/s 759 mmHg 60%
19:00 -1°C° 0 mm 1 m/s 759 mmHg 65%
20:00 -1°C° 0 mm 1 m/s 759 mmHg 65%
21:00 -3°C° 0 mm 2 m/s 759 mmHg 65%
22:00 -4°C° 0 mm 2 m/s 759 mmHg 65%
23:00 -4°C° 0 mm 2 m/s 759 mmHg 65%

10 Março, Quarta-feira

Tempo Temperatura Precipitação Vento Pressão Humidade
00:00 -4°C° 0 mm 2 m/s 759 mmHg 65%
01:00 -4°C° 0 mm 2 m/s 759 mmHg 65%
02:00 -4°C° 0 mm 2 m/s 759 mmHg 65%
03:00 -4°C° 0 mm 2 m/s 759 mmHg 64%
04:00 -4°C° 0 mm 2 m/s 759 mmHg 64%
05:00 -4°C° 0 mm 2 m/s 759 mmHg 64%
06:00 -4°C° 0 mm 2 m/s 759 mmHg 63%
07:00 -3°C° 0 mm 2 m/s 759 mmHg 63%
08:00 -2°C° 0 mm 2 m/s 759 mmHg 58%
09:00 -1°C° 0 mm 2 m/s 759 mmHg 53%
10:00 +2°C° 0 mm 2 m/s 759 mmHg 49%
11:00 +2°C° 0 mm 3 m/s 759 mmHg 47%
12:00 +2°C° 0 mm 3 m/s 758 mmHg 44%
13:00 +3°C° 0 mm 4 m/s 758 mmHg 42%
14:00 +3°C° 0 mm 3 m/s 758 mmHg 45%
15:00 +3°C° 0 mm 3 m/s 757 mmHg 48%
16:00 +3°C° 0 mm 3 m/s 757 mmHg 51%
17:00 +1°C° 0 mm 3 m/s 757 mmHg 55%
18:00 0°C° 0 mm 3 m/s 756 mmHg 60%
19:00 -1°C° 0 mm 3 m/s 756 mmHg 64%
20:00 -2°C° 0 mm 4 m/s 756 mmHg 63%
21:00 -2°C° 0 mm 4 m/s 755 mmHg 63%
22:00 -2°C° 0 mm 4 m/s 755 mmHg 62%
23:00 -2°C° 0 mm 5 m/s 754 mmHg 65%

11 Março, Quinta-feira

Tempo Temperatura Precipitação Vento Pressão Humidade
00:00 -1°C° 0 mm 5 m/s 754 mmHg 68%
01:00 -1°C° 0 mm 5 m/s 753 mmHg 70%
02:00 -1°C° 0 mm 5 m/s 752 mmHg 72%
03:00 -2°C° 0 mm 6 m/s 751 mmHg 74%
04:00 -1°C° 0 mm 6 m/s 750 mmHg 76%
05:00 -1°C° 0.1 mm 6 m/s 749 mmHg 77%
06:00 -1°C° 0.1 mm 6 m/s 748 mmHg 77%
07:00 -1°C° 0.1 mm 6 m/s 747 mmHg 78%
08:00 0°C° 0.7 mm 7 m/s 747 mmHg 82%
09:00 0°C° 0.7 mm 7 m/s 746 mmHg 86%
10:00 +1°C° 0.7 mm 8 m/s 745 mmHg 90%
11:00 +1°C° 0.1 mm 8 m/s 745 mmHg 89%
12:00 +2°C° 0.1 mm 8 m/s 744 mmHg 89%
13:00 +4°C° 0.1 mm 8 m/s 743 mmHg 88%
14:00 +5°C° 0.1 mm 7 m/s 743 mmHg 87%
15:00 +5°C° 0.1 mm 7 m/s 742 mmHg 85%
16:00 +7°C° 0.1 mm 6 m/s 742 mmHg 84%
17:00 +6°C° 0.1 mm 7 m/s 742 mmHg 83%
18:00 +6°C° 0.1 mm 7 m/s 741 mmHg 83%
19:00 +7°C° 0.1 mm 8 m/s 741 mmHg 82%
20:00 +6°C° 0.4 mm 7 m/s 742 mmHg 81%
21:00 +5°C° 0.4 mm 6 m/s 742 mmHg 80%
22:00 +4°C° 0.4 mm 6 m/s 743 mmHg 79%
23:00 +4°C° 0 mm 6 m/s 742 mmHg 80%

12 Março, Sexta-feira

Tempo Temperatura Precipitação Vento Pressão Humidade
00:00 +3°C° 0 mm 6 m/s 742 mmHg 81%
01:00 +3°C° 0 mm 6 m/s 742 mmHg 82%
02:00 +3°C° 0 mm 6 m/s 742 mmHg 83%
03:00 +3°C° 0 mm 6 m/s 742 mmHg 83%
04:00 +3°C° 0 mm 7 m/s 742 mmHg 84%
05:00 +3°C° 0 mm 7 m/s 742 mmHg 84%
06:00 +3°C° 0 mm 7 m/s 742 mmHg 83%
07:00 +3°C° 0 mm 7 m/s 742 mmHg 83%
08:00 +4°C° 0.1 mm 8 m/s 742 mmHg 76%
09:00 +5°C° 0.1 mm 9 m/s 742 mmHg 69%
10:00 +6°C° 0.1 mm 10 m/s 742 mmHg 61%
11:00 +6°C° 0.1 mm 10 m/s 741 mmHg 61%
12:00 +6°C° 0.1 mm 11 m/s 741 mmHg 61%
13:00 +5°C° 0.1 mm 12 m/s 741 mmHg 60%
14:00 +6°C° 0 mm 11 m/s 741 mmHg 61%
15:00 +6°C° 0 mm 11 m/s 741 mmHg 62%
16:00 +6°C° 0 mm 10 m/s 741 mmHg 64%
17:00 +5°C° 0 mm 9 m/s 742 mmHg 67%
18:00 +4°C° 0 mm 8 m/s 742 mmHg 70%
19:00 +3°C° 0 mm 7 m/s 743 mmHg 73%
20:00 +3°C° 0 mm 6 m/s 743 mmHg 74%
21:00 +3°C° 0 mm 6 m/s 744 mmHg 76%
22:00 +2°C° 0 mm 6 m/s 744 mmHg 78%
23:00 +2°C° 0 mm 6 m/s 744 mmHg 78%
Mostrar mais

Necessitamos do seu Consentimento

A Meteoprog e os seus Fornecedores de Serviços podem armazenar e aceder a dados pessoais como cookies, identificadores do dispositivo ou outras tecnologias semelhantes existentes no seu dispositivo e processar estes dados para personalizar conteúdos e anúncios, assim como funcionalidades nas redes sociais e análise de tráfego.

  • Armazenar e/ou aceder a informações no seu dispositivo

    Os cookies, identificadores do dispositivo ou outras informações podem ser armazenados ou acedidos no seu dispositivo, para os fins acima indicados.

  • Anúncios e conteúdos personalizados, medição de anúncios e conteúdos, dados sobre o público-alvo e desenvolvimento de produtos

    Os anúncios e os conteúdos podem ser personalizados com base num perfil. Podem ser adicionados dados adicionais para uma maior personalização dos anúncios e dos conteúdos. A eficácia dos anúncios e dos conteúdos pode ser medida. Podem ser obtidas informações sobre o público que visualizou os anúncios e os conteúdos. Estes dados podem ser usados para desenvolver ou melhorar sistemas, softwares ou a experiência do utilizador.

Ao clicar em "Eu concordo”, permitirá o uso de cookies, identificadores do dispositivo e web beacons mencionados ou outras tecnologias semelhantes. As configurações do navegador do seu dispositivo podem ser alteradas.

Para certos fins, podem ser invocados interesses legítimos ao invés de consentimento. Pode ler mais informação sobre este assunto na nossa Política de Privacidade e Cookies.